User: anonymous   Login
Location: Bangkok
(13.7500°N, 100.5170°E)
Time: 03:48:05
(UTC+07:00)
Language:

SPOT 1/Viking Rocket - Orbit

View from above orbital plane
View from above orbital plane
View from above satellite
View from above satellite

Ground track
Ground track

The orbit data is extracted from the following two-line orbital elements,

1 16615U 86019C   17349.81027003  .00000045  00000-0  33252-4 0  9996
2 16615  98.5919  55.4056 0011066 226.6139 241.8243 14.31688202665488
Epoch (UTC): 15 December 2017 19:26:47
Eccentricity: 0.0011066
inclination: 98.5919°
perigee height: 778 km
apogee height: 794 km
right ascension of ascending node: 55.4056°
argument of perigee: 226.6139°
revolutions per day: 14.31688202
mean anomaly at epoch: 241.8243°
orbit number at epoch: 66548

The dashed part of the orbit path shows where the satellite is in the earth's shadow,  

DLR